Location: Woodhurst
(52.3667°N, 0.0667°W)
Time: 18:58:27
(UTC+00:00)

Cosmos 192 - Pass Details

Date: 19 May 2025
Orbit: 695 x 708 km, 74.0° (Epoch: 22 June)

Event Time Altitude Azimuth Distance (km) Brightness Sun altitude
Rises 21:45:08 0° 333° (NNW) 3,116 9.8 -12.2°
Reaches altitude 10° 21:47:28 10° 331° (NNW) 2,193 8.4 -12.4°
Maximum altitude 21:52:24 71° 249° (WSW) 752 4.5 -12.8°
Enters shadow 21:56:02 18° 167° (SSE) 1,698 5.7 -13.0°
